Location: B�retswil
(47.3376°N, 8.8534°E)
Time: 12:24:14
(UTC+00:00)

deb r/b Ablestar - Visible Passes

Search period start: 24 September 2021 00:00
Search period end: 04 October 2021 00:00
Orbit: 885 x 920 km, 66.5° (Epoch: 23 September)

Date Brightness Start Highest point End Pass type
(mag) Time Alt. Az. Time Alt. Az. Time Alt. Az.
24 Sep ? 01:30:02 35° E 01:30:02 35° E 01:34:26 10° NE visible
24 Sep ? 03:13:08 37° W 03:14:51 46° NW 03:20:36 10° NNE visible
25 Sep ? 01:33:28 42° ENE 01:33:28 42° ENE 01:37:49 10° NE visible
25 Sep ? 03:16:34 32° WNW 03:18:14 38° NW 03:23:45 10° NNE visible
26 Sep ? 01:36:51 47° ENE 01:36:51 47° ENE 01:41:08 10° NE visible
26 Sep ? 03:19:57 27° WNW 03:21:38 31° NW 03:26:53 10° NNE visible
27 Sep ? 01:40:12 48° NE 01:40:12 48° NE 01:44:24 10° NE visible
27 Sep ? 03:23:18 23° WNW 03:25:05 26° NW 03:30:02 10° NNE visible
28 Sep ? 00:00:26 11° ENE 00:00:26 11° ENE 00:00:37 10° ENE visible
28 Sep ? 01:43:32 46° NNE 01:43:32 46° NNE 01:47:38 10° NNE visible
28 Sep ? 03:26:37 19° WNW 03:28:35 22° NNW 03:33:09 10° NNE visible
29 Sep ? 00:03:43 12° ENE 00:03:43 12° ENE 00:04:17 10° NE visible
29 Sep ? 01:46:49 42° N 01:46:49 42° N 01:50:50 10° NNE visible
29 Sep ? 03:29:54 16° NW 03:32:07 19° NNW 03:36:17 10° NNE visible
30 Sep ? 00:06:59 14° NE 00:06:59 14° NE 00:07:46 10° NE visible
30 Sep ? 01:50:05 37° N 01:50:05 37° N 01:54:00 10° NNE visible
30 Sep ? 03:33:10 13° NW 03:35:41 17° NNW 03:39:25 10° NNE visible
01 Oct ? 00:10:14 15° NE 00:10:14 15° NE 00:11:11 10° NE visible
01 Oct ? 01:53:19 32° N 01:53:19 32° N 01:57:09 10° NNE visible
01 Oct ? 03:36:24 11° NW 03:39:16 15° NNW 03:42:35 10° NNE visible
02 Oct ? 00:13:27 16° NE 00:13:27 16° NE 00:14:30 10° NE visible
02 Oct ? 01:56:32 28° NNW 01:56:32 28° NNW 02:00:18 10° NNE visible
02 Oct ? 03:40:02 10° NW 03:42:55 14° NNW 03:45:46 10° NNE visible
03 Oct ? 00:16:39 16° NE 00:16:39 16° NE 00:17:47 10° NE visible
03 Oct ? 01:59:44 25° NNW 01:59:44 25° NNW 02:03:26 10° NNE visible
03 Oct ? 03:44:05 10° NW 03:46:34 13° N 03:49:02 10° NNE visible
